TimeMDT,TemperatureF,Dew PointF,Humidity,Sea Level PressureIn,VisibilityMPH,Wind Direction,Wind SpeedMPH,Gust SpeedMPH,PrecipitationIn,Events,Conditions,WindDirDegrees,DateUTC
12:53 AM,28.0,7.0,41,30.07,10.0,ENE,3.5,-,N/A,,Clear,60,2013-03-26 06:53:00
1:53 AM,27.0,7.0,43,30.06,10.0,Calm,Calm,-,N/A,,Clear,0,2013-03-26 07:53:00
2:53 AM,28.0,9.0,45,30.03,10.0,SW,6.9,-,N/A,,Clear,230,2013-03-26 08:53:00
3:53 AM,28.0,9.0,45,30.01,10.0,SW,3.5,-,N/A,,Partly Cloudy,220,2013-03-26 09:53:00
4:53 AM,27.0,10.0,49,30.00,10.0,Calm,Calm,-,N/A,,Clear,0,2013-03-26 10:53:00
5:53 AM,25.0,14.0,63,30.01,10.0,Calm,Calm,-,N/A,,Clear,0,2013-03-26 11:53:00
6:53 AM,26.1,10.9,53,30.02,10.0,Calm,Calm,-,N/A,,Clear,0,2013-03-26 12:53:00
7:53 AM,27.0,9.0,47,30.03,10.0,SW,4.6,-,N/A,,Clear,230,2013-03-26 13:53:00
8:53 AM,30.0,14.0,51,30.02,10.0,Calm,Calm,-,N/A,,Partly Cloudy,0,2013-03-26 14:53:00
9:53 AM,35.1,15.1,44,30.00,10.0,East,4.6,-,N/A,,Partly Cloudy,80,2013-03-26 15:53:00
10:53 AM,39.9,15.1,36,29.97,10.0,SE,4.6,-,N/A,,Overcast,130,2013-03-26 16:53:00
11:53 AM,42.1,10.9,28,29.96,10.0,SSE,3.5,-,N/A,,Overcast,150,2013-03-26 17:53:00
12:53 PM,43.0,12.9,30,29.94,10.0,SE,5.8,-,N/A,,Clear,140,2013-03-26 18:53:00
1:53 PM,45.0,15.1,30,29.93,10.0,ENE,4.6,-,N/A,,Clear,70,2013-03-26 19:53:00
2:53 PM,46.9,16.0,29,29.90,10.0,SSE,4.6,-,N/A,,Overcast,150,2013-03-26 20:53:00
3:53 PM,46.9,17.1,30,29.88,10.0,SSW,8.1,-,N/A,,Partly Cloudy,210,2013-03-26 21:53:00
4:53 PM,46.9,16.0,29,29.88,10.0,Calm,Calm,-,N/A,,Clear,0,2013-03-26 22:53:00
5:53 PM,46.0,16.0,30,29.90,10.0,NE,10.4,-,N/A,,Clear,50,2013-03-26 23:53:00
6:53 PM,44.1,16.0,32,29.93,10.0,NE,6.9,-,N/A,,Mostly Cloudy,50,2013-03-27 00:53:00
7:53 PM,41.0,17.1,38,29.95,10.0,SW,3.5,-,N/A,,Mostly Cloudy,220,2013-03-27 01:53:00
8:53 PM,37.9,21.0,51,29.96,10.0,WSW,9.2,-,N/A,,Overcast,240,2013-03-27 02:53:00
9:53 PM,35.1,21.9,59,29.97,10.0,SSW,5.8,-,N/A,,Clear,210,2013-03-27 03:53:00
10:53 PM,34.0,21.0,59,29.96,10.0,West,5.8,-,N/A,,Clear,260,2013-03-27 04:53:00
11:53 PM,35.1,19.9,54,29.95,10.0,WSW,11.5,-,N/A,,Clear,250,2013-03-27 05:53:00